Regional Weather Roundup
Issued by NWS Northern Indiana

Home | Current Version | Previous Version | Text Only | Print | Product List | Glossary On
Versions: 1 2 3 4 5 6 7 8 9 10 11 12 13 14 15 16 17 18 19 20 21 22 23 24 25 26 27 28 29 30 31 32 33 34 35 36 37 38 39 40 41 42 43 44 45 46 47 48 49 50
000
ASUS43 KIWX 231410
RWRIWX

KIWX WEATHER ROUNDUP
NATIONAL WEATHER SERVICE NORTHERN INDIANA
1000 AM EDT MON APR 23 2018

NOTE: "FAIR" INDICATES FEW OR NO CLOUDS BELOW 12,000 FEET WITH NO
SIGNIFICANT WEATHER AND/OR OBSTRUCTIONS TO VISIBILITY.

* THESE STATIONS ARE NOT UNDER NWS QUALITY CONTROL. THEY ALSO MAY NOT
  REPORT WEATHER SUCH AS PRECIPITATION OR FOG.

INZ001>027-231500-
NORTHERN INDIANA

CITY           SKY/WX    TMP DP  RH WIND       PRES   REMARKS
GARY*          CLOUDY    46  32  57 N10       30.20S
VALPARAISO     FAIR      55  28  35 NE14      30.17S
MICHIGAN CITY* FAIR      52  30  43 NE6       30.18F
LAPORTE*       FAIR      54  29  38 E9        30.18S
KNOX*          FAIR      52  30  43 E9        30.17S
SOUTH BEND     FAIR      54  27  35 NE7       30.18F
ELKHART*       FAIR      52  28  40 E10       30.18F
GOSHEN         FAIR      53  33  46 E10       30.18F
MONTICELLO*    FAIR      52  30  43 E6        30.14S
LOGANSPORT*    FAIR      52  32  46 E7        30.15S
ROCHESTER*     FAIR      55  32  41 E8        30.16S
WARSAW*        FAIR      52  32  46 E10       30.17S
AUBURN*        FAIR      54  36  50 E10       30.20S
FORT WAYNE     PTSUNNY   53  37  54 E13       30.18F
HUNTINGTON*    FAIR      52  33  47 E8        30.17S
PERU/GRISSOM   PTSUNNY   52  34  51 NE12      30.13S
MARION*        FAIR      51  34  52 E12       30.15S

$$
INZ028>050-231500-
CENTRAL INDIANA

CITY           SKY/WX    TMP DP  RH WIND       PRES   REMARKS
LAFAYETTE      FAIR      50  34  54 E10       30.12F
KOKOMO*        FAIR      53  35  50 E14       30.14F
MUNCIE*        FAIR      56  37  49 E13       30.14S
INDIANAPOLIS   CLOUDY    55  35  47 E10       30.11S

$$
MIZ043>046-050>051-056>058-064>065-071>073-077>080-231500-
SOUTHWEST LOWER MICHIGAN

CITY           SKY/WX    TMP DP  RH WIND       PRES   REMARKS
BATTLE CREEK   FAIR      53  29  39 NE9       30.23F
BENTON HARBOR  FAIR      54  27  35 E10       30.20F
COLDWATER*     FAIR      54  31  41 E7        30.20F
HILLSDALE*     FAIR      54  32  43 E9        30.21F
HOLLAND        FAIR      53  29  39 E8        30.24F
GRAND RAPIDS   PTSUNNY   52  30  43 NE12      30.24F
KALAMAZOO      FAIR      55  29  36 NE6       30.23F
STURGIS*       FAIR      55  32  42 E10       30.19S
THREE RIVERS*  FAIR      53  31  41 NE8       30.21F

$$
OHZ001>008-015>018-024>025-231500-
NORTHWEST OHIO

CITY           SKY/WX    TMP DP  RH WIND       PRES   REMARKS
WAUSEON*       FAIR      55  39  54 E10       30.21F
DEFIANCE       FAIR      55  38  52 E10       30.20
FINDLAY        FAIR      60  39  45 SE13      30.19F
TOLEDO EXPRESS FAIR      57  40  52 E10       30.22F
TOLEDO METCALF FAIR      57  40  52 E8        30.23F
LIMA           FAIR      58  41  53 SE14G22   30.17F

$$
AND FOR LAKE MICHIGAN COASTAL AND OPEN LAKE BUOY OBSERVATIONS

STATION/POSITION TEMP    WIND        PRES    VSBY  WAVE
                 AIR SEA DIR/SP/G                  HT/PER
                 (F)     (DEG/KT/KT) (MB)    (MI)  (FT/S)
CALUMET HARBOR    43     340/ 12/ 16 1022.1F
MICHIGAN CITY     42      20/ 13/ 14   N/A
BURNS HARBOR      43      70/  8/ 11 1022.7S
SAINT JOSEPH      54      50/  2/  7 1023.0

$$
&&



USA.gov is the U.S. government's official web portal to all federal, state and local government web resources and services.